Regional Weather Roundup
Issued by NWS Charleston, WV

Home | Current Version | Previous Version | Text Only | Print | Product List | Glossary Off
Versions: 1 2 3 4 5 6 7 8 9 10 11 12 13 14 15 16 17 18 19 20 21 22 23 24 25 26 27 28 29 30 31 32 33 34 35 36 37 38 39 40 41 42 43 44 45 46 47 48 49 50

520
ASUS41 KRLX 091710
RWRRLX
West Virginia Regional Weather Roundup
National Weather Service Charleston WV
1200 PM EST FRI DEC 09 2016

Note: "fair" indicates few or no clouds below 12,000 feet with no
significant weather and/or obstructions to visibility.

WVZ003-091800-
Northern Panhandle of West Virginia

CITY           SKY/WX    TMP DP  RH WIND       PRES   REMARKS
WHEELING       CLOUDY    23  16  74 W14G20    30.38F
$$

WVZ009-091800-
Northwest West Virginia

CITY           SKY/WX    TMP DP  RH WIND       PRES   REMARKS
PARKERSBURG    PTSUNNY   28  15  58 W12       30.49F
$$

WVZ006-091800-
Western West Virginia

CITY           SKY/WX    TMP DP  RH WIND       PRES   REMARKS
HUNTINGTON     CLOUDY    26  16  65 VRB6      30.52F
$$

WVZ015-091800-
West Central West Virginia

CITY           SKY/WX    TMP DP  RH WIND       PRES   REMARKS
CHARLESTON     FLURRIES  26  13  57 VRB7      30.49F
$$

WVZ022-031-091800-
North Central West Virginia

CITY           SKY/WX    TMP DP  RH WIND       PRES   REMARKS
CLARKSBURG     CLOUDY    24  17  74 W12       30.41F
MORGANTOWN     FLURRIES  25  15  66 W8        30.39S
$$

WVZ025-035-042-045-091800-
Southern West Virginia

CITY           SKY/WX    TMP DP  RH WIND       PRES   REMARKS
BECKLEY        CLOUDY    21  11  65 NW8       30.37F
LOGAN          MIX PCPN  23  14  68 CALM      30.45F
BLUEFIELD      FLURRIES  17   9  70 W12G20    30.35F WCI   4
LEWISBURG      CLOUDY    22  11  60 W9        30.35F
$$

WVZ047-091800-
Northern Mountains of West Virginia

CITY           SKY/WX    TMP DP  RH WIND       PRES   REMARKS
ELKINS         LGT SNOW  22  14  71 CALM      30.36F
$$

WVZ052-091800-
Eastern Panhandle of West Virginia

CITY           SKY/WX    TMP DP  RH WIND       PRES   REMARKS
MARTINSBURG    MOSUNNY   35  16  45 W21       30.33S
PETERSBURG     CLOUDY    32  16  51 NW18      30.37S
$$




USA.gov is the U.S. government's official web portal to all federal, state and local government web resources and services.